FENGYUN 1C DEB

Satellite information

Favourite Embed

Satellite Type and Status

DEBRISIN ORBIT

Key statistics

Satellite FENGYUN 1C DEB at a glance.

Uptime

9715

Days in orbit

Revolutions

≈ 14.5

Per day

Orbit

SSO

Sun Synchronous Orbit

Inclination

99.0

Latest

Satellite identification and parameters

Extended collection of information and parameters for FENGYUN 1C DEB.

Object identification

Identified? True

Debris? True

Object name: FENGYUN 1C DEB

International designator: 1999-025BJM

Object number (NORAD): 31183

Object ID (CCSDS): 31183

Country: PEOPLES REPUBLIC OF CHINA (PRC)

Current information (Y/N): Y

RCS size: SMALL

Orbital parameters

Period: 99.281 minutes

Inclination: 99.0365 deg

SMA: 7102.387 km

Apoapsis: 757.98 km

Periapsis: 690.524 km

RAAN: 329.9181 deg

Eccentricy: 0.00474882

Argument of periapsis: 108.9889 deg

Mean anomaly: 317.1431 deg

Mean motion: 14.50428357 rev/day

Mean motion (dot): 0.00007526 rev/day2

B* drag term: 0.0019094587 1/REarth

Two-line elements (TLE)

Creation date: Dec. 12, 2025, 10:14 a.m.

Reference frame: TEME

Reference center: EARTH

Epoch: Dec. 12, 2025, 5:11 a.m. UTC

TLE line 0: 0 FENGYUN 1C DEB

TLE line 1: 1 31183U 99025BJM 25346.21606663 .00007526 00000-0 19095-2 0 9997

TLE line 2: 2 31183 99.0365 329.9181 0047488 108.9889 317.1431 14.50428357974758

Live tracking on map

Real-time ground track for satellite FENGYUN 1C DEB.

In-orbit conjunctions

A list of the most updated potential collisions computed for object FENGYUN 1C DEB.

Target Orbit TCA Probability of collision Miss distance Type
CZ-6A DEB LEO 2025-06-13 15:44:27 0.0002143795 167.0 (m) DEBRIS
FENGYUN 1C DEB SSO 2024-11-14 15:39:37 0.0004335905 65.0 (m) DEBRIS
CZ-4 DEB SSO 2024-11-12 05:52:10 0.0007616732 548.0 (m) DEBRIS

Associated space launch

Chinese polar orbiting meteorological satellite

FENGYUN 1C DEB was lifted into orbit during the mission ‘Long March 4B | Feng Yun 1C’, on board a Long March 4B space rocket.

The launch took place on May 10, 1999, 1:33 a.m. from Launch Complex 7.

For more information about the launch, click the button.

Launch to space Long March 4B | Feng Yun 1C
Long March 4B | Feng Yun 1C

Agency: N/A

Status: Launch Successful

Launch date: May 10, 1999, 1:33 a.m. UTC

Rocket: Long March 4B

Launch pad: Launch Complex 7

Location: Taiyuan Satellite Launch Center, People's Republic of China

...

Latest news about this satellite

There are no fresh news available about this satellite. Check back as we update our databases every day.


Newsletter sign-up

Weekly statistics, charts and insights to help you stay on top of the space industry.